| time (UTC) | temp F | wind direction | speed MPH | gust MPH | rain 1hr in | rain 24hr in | rain mn in | humidity % | barometer mb |
| 20260504201210 | 73 | 245 | 4.0 | 9.0 | 0.00 | 0.00 | 0.00 | 40 | 1004.0 |
| 20260504200710 | 73 | 245 | 3.0 | 8.0 | 0.00 | 0.00 | 0.00 | 40 | 1004.0 |
| 20260504200209 | 72 | 245 | 3.0 | 5.0 | 0.00 | 0.00 | 0.00 | 40 | 1004.0 |
| 20260504195710 | 72 | 245 | 3.0 | 8.0 | 0.00 | 0.00 | 0.00 | 41 | 1004.0 |
| 20260504195210 | 72 | 245 | 3.0 | 9.0 | 0.00 | 0.00 | 0.00 | 40 | 1004.0 |
| 20260504194710 | 72 | 245 | 3.0 | 8.0 | 0.00 | 0.00 | 0.00 | 41 | 1004.0 |
| 20260504194210 | 72 | 245 | 3.0 | 7.0 | 0.00 | 0.00 | 0.00 | 42 | 1004.0 |
| 20260504193710 | 73 | 245 | 4.0 | 4.0 | 0.00 | 0.00 | 0.00 | 39 | 1004.0 |
| 20260504193211 | 73 | 245 | 2.0 | 8.0 | 0.00 | 0.00 | 0.00 | 40 | 1004.0 |
| 20260504192710 | 72 | 245 | 4.0 | 8.0 | 0.00 | 0.00 | 0.00 | 41 | 1004.0 |
| 20260504192209 | 72 | 245 | 6.0 | 8.0 | 0.00 | 0.00 | 0.00 | 41 | 1005.0 |
| 20260504191709 | 72 | 245 | 6.0 | 11.0 | 0.00 | 0.00 | 0.00 | 40 | 1005.0 |
| 20260504191210 | 73 | 245 | 2.0 | 11.0 | 0.00 | 0.00 | 0.00 | 40 | 1005.0 |
| 20260504190709 | 72 | 245 | 3.0 | 6.0 | 0.00 | 0.00 | 0.00 | 41 | 1005.0 |
| 20260504190209 | 73 | 245 | 6.0 | 10.0 | 0.00 | 0.00 | 0.00 | 39 | 1005.0 |
| 20260504185709 | 72 | 245 | 4.0 | 7.0 | 0.00 | 0.00 | 0.00 | 40 | 1005.0 |
| 20260504185210 | 72 | 245 | 6.0 | 11.0 | 0.00 | 0.00 | 0.00 | 40 | 1005.0 |
| 20260504184710 | 72 | 245 | 3.0 | 11.0 | 0.00 | 0.00 | 0.00 | 39 | 1005.0 |
| 20260504184210 | 72 | 245 | 6.0 | 10.0 | 0.00 | 0.00 | 0.00 | 39 | 1005.0 |
| 20260504183711 | 71 | 245 | 5.0 | 14.0 | 0.00 | 0.00 | 0.00 | 42 | 1005.0 |
| 20260504183209 | 70 | 245 | 3.0 | 4.0 | 0.00 | 0.00 | 0.00 | 43 | 1005.0 |
| 20260504182710 | 71 | 245 | 2.0 | 9.0 | 0.00 | 0.00 | 0.00 | 42 | 1005.0 |
| 20260504182209 | 71 | 245 | 8.0 | 13.0 | 0.00 | 0.00 | 0.00 | 41 | 1005.0 |
| 20260504181709 | 71 | 245 | 6.0 | 8.0 | 0.00 | 0.00 | 0.00 | 43 | 1005.0 |
| 20260504181209 | 70 | 245 | 5.0 | 11.0 | 0.00 | 0.00 | 0.00 | 43 | 1005.0 |
| 20260504180710 | 70 | 245 | 8.0 | 9.0 | 0.00 | 0.00 | 0.00 | 42 | 1005.0 |
| 20260504180210 | 70 | 245 | 3.0 | 11.0 | 0.00 | 0.00 | 0.00 | 44 | 1006.0 |
| 20260504175709 | 69 | 245 | 4.0 | 14.0 | 0.00 | 0.00 | 0.00 | 44 | 1006.0 |
| 20260504175211 | 69 | 245 | 2.0 | 7.0 | 0.00 | 0.00 | 0.00 | 45 | 1006.0 |
| 20260504174710 | 69 | 245 | 10.0 | 10.0 | 0.00 | 0.00 | 0.00 | 44 | 1006.0 |
| 20260504174209 | 69 | 245 | 9.0 | 13.0 | 0.00 | 0.00 | 0.00 | 44 | 1006.0 |
| 20260504173710 | 69 | 245 | 5.0 | 8.0 | 0.00 | 0.00 | 0.00 | 45 | 1006.0 |
| 20260504173209 | 69 | 245 | 6.0 | 9.0 | 0.00 | 0.00 | 0.00 | 45 | 1006.0 |
| 20260504172710 | 69 | 245 | 8.0 | 9.0 | 0.00 | 0.00 | 0.00 | 44 | 1006.0 |
| 20260504172211 | 68 | 245 | 3.0 | 3.0 | 0.00 | 0.00 | 0.00 | 47 | 1006.0 |
| 20260504171709 | 67 | 245 | 4.0 | 6.0 | 0.00 | 0.00 | 0.00 | 47 | 1006.0 |
| 20260504171210 | 67 | 245 | 7.0 | 11.0 | 0.00 | 0.00 | 0.00 | 46 | 1006.0 |
| 20260504170710 | 66 | 245 | 5.0 | 6.0 | 0.00 | 0.00 | 0.00 | 47 | 1006.0 |
| 20260504170210 | 66 | 245 | 7.0 | 9.0 | 0.00 | 0.00 | 0.00 | 46 | 1006.0 |
| 20260504160209 | 64 | 245 | 5.0 | 11.0 | 0.00 | 0.00 | 0.00 | 47 | 1007.0 |
| 20260504150710 | 63 | 245 | 10.0 | 12.0 | 0.00 | 0.00 | 0.00 | 48 | 1007.0 |
| 20260504150209 | 63 | 245 | 6.0 | 11.0 | 0.00 | 0.00 | 0.00 | 48 | 1007.0 |
| 20260504141212 | 60 | 245 | 4.0 | 11.0 | 0.00 | 0.00 | 0.00 | 52 | 1007.0 |
| 20260504140714 | 60 | 245 | 9.0 | 9.0 | 0.00 | 0.00 | 0.00 | 52 | 1007.0 |
| 20260504140212 | 60 | 245 | 6.0 | 6.0 | 0.00 | 0.00 | 0.00 | 52 | 1007.0 |
| 20260504130710 | 58 | 245 | 7.0 | 9.0 | 0.00 | 0.00 | 0.00 | 54 | 1007.0 |
| 20260504130211 | 57 | 245 | 6.0 | 13.0 | 0.00 | 0.00 | 0.00 | 54 | 1008.0 |
| 20260504120213 | 54 | 245 | 2.0 | 8.0 | 0.00 | 0.00 | 0.00 | 57 | 1008.0 |
| 20260504110709 | 52 | 245 | 2.0 | 3.0 | 0.00 | 0.00 | 0.00 | 62 | 1008.0 |
| 20260504110209 | 52 | 245 | 1.0 | 7.0 | 0.00 | 0.00 | 0.00 | 62 | 1008.0 |
| 20260504100210 | 52 | 245 | 2.0 | 5.0 | 0.00 | 0.00 | 0.00 | 58 | 1007.0 |
| 20260504081709 | 49 | 245 | 1.0 | 1.0 | 0.00 | 0.00 | 0.00 | 67 | 1008.0 |
| 20260504081210 | 49 | 245 | 3.0 | 4.0 | 0.00 | 0.00 | 0.00 | 68 | 1008.0 |
| 20260504080709 | 49 | 245 | 4.0 | 6.0 | 0.00 | 0.00 | 0.00 | 70 | 1008.0 |
| 20260504080209 | 48 | 245 | 2.0 | 5.0 | 0.00 | 0.00 | 0.00 | 71 | 1008.0 |
| 20260504070209 | 49 | 245 | 2.0 | 6.0 | 0.00 | 0.00 | 0.00 | 74 | 1009.0 |
| 20260504060209 | 50 | 245 | 2.0 | 7.0 | 0.00 | 0.00 | 0.00 | 71 | 1009.0 |
| 20260504050709 | 52 | 245 | 11.0 | 15.0 | 0.00 | 0.00 | 0.00 | 68 | 1010.0 |
| 20260504050209 | 52 | 245 | 3.0 | 12.0 | 0.00 | 0.00 | 0.00 | 66 | 1010.0 |
| 20260504045709 | 52 | 245 | 6.0 | 6.0 | 0.00 | 0.00 | 0.00 | 65 | 1010.0 |
| 20260504045209 | 52 | 245 | 5.0 | 10.0 | 0.00 | 0.00 | 0.00 | 64 | 1010.0 |
| 20260504044710 | 52 | 245 | 9.0 | 12.0 | 0.00 | 0.00 | 0.00 | 62 | 1010.0 |
| 20260504044210 | 52 | 245 | 7.0 | 12.0 | 0.00 | 0.00 | 0.00 | 60 | 1010.0 |
| 20260504043709 | 52 | 245 | 5.0 | 9.0 | 0.00 | 0.00 | 0.00 | 61 | 1010.0 |
| 20260504043209 | 51 | 245 | 6.0 | 9.0 | 0.00 | 0.00 | 0.00 | 61 | 1010.0 |
| 20260504042709 | 51 | 245 | 6.0 | 9.0 | 0.00 | 0.00 | 0.00 | 61 | 1010.0 |
| 20260504042210 | 51 | 245 | 6.0 | 9.0 | 0.00 | 0.00 | 0.00 | 62 | 1010.0 |
| 20260504041709 | 50 | 245 | 5.0 | 8.0 | 0.00 | 0.00 | 0.00 | 62 | 1010.0 |
| 20260504041209 | 50 | 245 | 5.0 | 5.0 | 0.00 | 0.00 | 0.00 | 64 | 1010.0 |
| 20260504040709 | 50 | 245 | 4.0 | 4.0 | 0.00 | 0.00 | 0.00 | 63 | 1010.0 |
| 20260504040210 | 50 | 245 | 6.0 | 8.0 | 0.00 | 0.00 | 0.00 | 63 | 1010.0 |
| 20260504035710 | 50 | 245 | 4.0 | 6.0 | 0.00 | 0.00 | 0.00 | 62 | 1010.0 |
| 20260504035209 | 51 | 245 | 3.0 | 8.0 | 0.00 | 0.00 | 0.00 | 61 | 1010.0 |
| 20260504034709 | 51 | 245 | 3.0 | 7.0 | 0.00 | 0.00 | 0.00 | 60 | 1010.0 |
| 20260504034209 | 51 | 245 | 3.0 | 6.0 | 0.00 | 0.00 | 0.00 | 59 | 1010.0 |
| 20260504033709 | 51 | 245 | 7.0 | 7.0 | 0.00 | 0.00 | 0.00 | 58 | 1010.0 |
| 20260504033209 | 52 | 245 | 3.0 | 10.0 | 0.00 | 0.00 | 0.00 | 58 | 1010.0 |
| 20260504032710 | 52 | 245 | 7.0 | 9.0 | 0.00 | 0.00 | 0.00 | 57 | 1010.0 |
| 20260504032209 | 52 | 245 | 1.0 | 8.0 | 0.00 | 0.00 | 0.00 | 56 | 1010.0 |
| 20260504031709 | 53 | 245 | 3.0 | 11.0 | 0.00 | 0.00 | 0.00 | 55 | 1010.0 |
| 20260504031209 | 53 | 245 | 4.0 | 11.0 | 0.00 | 0.00 | 0.00 | 54 | 1010.0 |
| 20260504030709 | 54 | 245 | 4.0 | 9.0 | 0.00 | 0.00 | 0.00 | 53 | 1010.0 |
| 20260504030210 | 54 | 245 | 3.0 | 6.0 | 0.00 | 0.00 | 0.00 | 51 | 1010.0 |
| 20260504025709 | 55 | 245 | 5.0 | 6.0 | 0.00 | 0.00 | 0.00 | 50 | 1010.0 |
| 20260504025215 | 55 | 245 | 4.0 | 7.0 | 0.00 | 0.00 | 0.00 | 48 | 1010.0 |
| 20260504024709 | 55 | 245 | 7.0 | 10.0 | 0.00 | 0.00 | 0.00 | 48 | 1010.0 |
| 20260504024210 | 55 | 245 | 9.0 | 9.0 | 0.00 | 0.00 | 0.00 | 48 | 1010.0 |
| 20260504023709 | 55 | 245 | 8.0 | 9.0 | 0.00 | 0.00 | 0.00 | 48 | 1010.0 |
| 20260504023209 | 55 | 245 | 8.0 | 11.0 | 0.00 | 0.00 | 0.00 | 48 | 1010.0 |
| 20260504022710 | 55 | 245 | 3.0 | 9.0 | 0.00 | 0.00 | 0.00 | 49 | 1010.0 |
| 20260504022209 | 55 | 245 | 2.0 | 9.0 | 0.00 | 0.00 | 0.00 | 49 | 1010.0 |
| 20260504021709 | 54 | 245 | 2.0 | 9.0 | 0.00 | 0.00 | 0.00 | 50 | 1010.0 |
| 20260504021209 | 54 | 245 | 3.0 | 8.0 | 0.00 | 0.00 | 0.00 | 51 | 1010.0 |
| 20260504020710 | 54 | 245 | 4.0 | 8.0 | 0.00 | 0.00 | 0.00 | 52 | 1010.0 |
| 20260504020209 | 53 | 245 | 3.0 | 10.0 | 0.00 | 0.00 | 0.00 | 53 | 1010.0 |
| 20260504015710 | 53 | 245 | 7.0 | 9.0 | 0.00 | 0.00 | 0.00 | 55 | 1010.0 |
| 20260504015209 | 53 | 245 | 2.0 | 8.0 | 0.00 | 0.00 | 0.00 | 54 | 1010.0 |
| 20260504014710 | 53 | 245 | 1.0 | 8.0 | 0.00 | 0.00 | 0.00 | 55 | 1010.0 |
| 20260504014209 | 52 | 245 | 4.0 | 7.0 | 0.00 | 0.00 | 0.00 | 57 | 1010.0 |
| 20260504013710 | 53 | 245 | 5.0 | 7.0 | 0.00 | 0.00 | 0.00 | 57 | 1010.0 |
| 20260504013209 | 53 | 245 | 6.0 | 7.0 | 0.00 | 0.00 | 0.00 | 55 | 1010.0 |
| 20260504012709 | 53 | 245 | 4.0 | 9.0 | 0.00 | 0.00 | 0.00 | 56 | 1010.0 |
| 20260504012210 | 54 | 245 | 2.0 | 7.0 | 0.00 | 0.00 | 0.00 | 52 | 1010.0 |
| 20260504011709 | 54 | 245 | 5.0 | 10.0 | 0.00 | 0.00 | 0.00 | 51 | 1010.0 |
| 20260504011209 | 54 | 245 | 8.0 | 8.0 | 0.00 | 0.00 | 0.00 | 51 | 1010.0 |
| 20260504010710 | 54 | 245 | 3.0 | 4.0 | 0.00 | 0.00 | 0.00 | 51 | 1010.0 |
| 20260504010210 | 54 | 245 | 7.0 | 9.0 | 0.00 | 0.00 | 0.00 | 51 | 1010.0 |
| 20260504005709 | 54 | 245 | 10.0 | 10.0 | 0.00 | 0.00 | 0.00 | 51 | 1010.0 |
| 20260504005209 | 54 | 245 | 4.0 | 8.0 | 0.00 | 0.00 | 0.00 | 51 | 1010.0 |
| 20260504004711 | 54 | 245 | 7.0 | 7.0 | 0.00 | 0.00 | 0.00 | 51 | 1010.0 |
| 20260504004210 | 54 | 245 | 4.0 | 8.0 | 0.00 | 0.00 | 0.00 | 51 | 1010.0 |
| 20260504003709 | 54 | 245 | 8.0 | 8.0 | 0.00 | 0.00 | 0.00 | 52 | 1010.0 |
| 20260504003209 | 54 | 245 | 4.0 | 11.0 | 0.00 | 0.00 | 0.00 | 52 | 1010.0 |
| 20260504002709 | 53 | 245 | 4.0 | 7.0 | 0.00 | 0.00 | 0.00 | 52 | 1010.0 |
| 20260504002212 | 53 | 245 | 10.0 | 10.0 | 0.00 | 0.00 | 0.00 | 53 | 1010.0 |
| 20260504001709 | 53 | 245 | 6.0 | 9.0 | 0.00 | 0.00 | 0.00 | 54 | 1010.0 |
| 20260504001211 | 53 | 245 | 7.0 | 8.0 | 0.00 | 0.00 | 0.00 | 54 | 1010.0 |
| 20260504000710 | 53 | 245 | 5.0 | 6.0 | 0.00 | 0.00 | 0.00 | 55 | 1010.0 |
| 20260504000211 | 53 | 245 | 5.0 | 5.0 | 0.00 | 0.00 | 0.00 | 57 | 1010.0 |
| 20260503235709 | 52 | 245 | 4.0 | 5.0 | 0.00 | 0.00 | 0.00 | 57 | 1010.0 |
| 20260503235209 | 52 | 245 | 3.0 | 6.0 | 0.00 | 0.00 | 0.00 | 57 | 1010.0 |
| 20260503234709 | 52 | 245 | 4.0 | 5.0 | 0.00 | 0.00 | 0.00 | 58 | 1010.0 |
| 20260503234209 | 53 | 245 | 3.0 | 6.0 | 0.00 | 0.00 | 0.00 | 58 | 1010.0 |
| 20260503233709 | 53 | 245 | 3.0 | 8.0 | 0.00 | 0.00 | 0.00 | 57 | 1010.0 |
| 20260503233210 | 53 | 245 | 2.0 | 5.0 | 0.00 | 0.00 | 0.00 | 57 | 1010.0 |
| 20260503232710 | 53 | 245 | 5.0 | 6.0 | 0.00 | 0.00 | 0.00 | 57 | 1010.0 |
| 20260503232209 | 53 | 245 | 4.0 | 5.0 | 0.00 | 0.00 | 0.00 | 57 | 1010.0 |
| 20260503231711 | 53 | 245 | 3.0 | 7.0 | 0.00 | 0.00 | 0.00 | 57 | 1010.0 |
| 20260503231209 | 53 | 245 | 3.0 | 8.0 | 0.00 | 0.00 | 0.00 | 59 | 1010.0 |
| 20260503230709 | 53 | 245 | 3.0 | 7.0 | 0.00 | 0.00 | 0.00 | 60 | 1010.0 |
| 20260503230209 | 53 | 245 | 2.0 | 11.0 | 0.00 | 0.00 | 0.00 | 60 | 1010.0 |
| 20260503225709 | 53 | 245 | 5.0 | 8.0 | 0.00 | 0.00 | 0.00 | 60 | 1010.0 |
| 20260503225209 | 54 | 245 | 6.0 | 6.0 | 0.00 | 0.00 | 0.00 | 59 | 1010.0 |
| 20260503224710 | 54 | 245 | 3.0 | 7.0 | 0.00 | 0.00 | 0.00 | 57 | 1010.0 |
| 20260503224210 | 53 | 245 | 11.0 | 11.0 | 0.00 | 0.00 | 0.00 | 58 | 1010.0 |
| 20260503223710 | 53 | 245 | 5.0 | 6.0 | 0.00 | 0.00 | 0.00 | 58 | 1010.0 |
| 20260503223209 | 53 | 245 | 6.0 | 10.0 | 0.00 | 0.00 | 0.00 | 57 | 1010.0 |
| 20260503222709 | 53 | 245 | 3.0 | 8.0 | 0.00 | 0.00 | 0.00 | 58 | 1010.0 |
| 20260503222209 | 53 | 245 | 2.0 | 10.0 | 0.00 | 0.00 | 0.00 | 58 | 1010.0 |
| 20260503221710 | 53 | 245 | 4.0 | 12.0 | 0.00 | 0.00 | 0.00 | 59 | 1010.0 |
| 20260503221210 | 53 | 245 | 4.0 | 8.0 | 0.00 | 0.00 | 0.00 | 60 | 1011.0 |
| 20260503220709 | 53 | 245 | 6.0 | 9.0 | 0.00 | 0.00 | 0.00 | 59 | 1010.0 |
| 20260503220210 | 52 | 245 | 2.0 | 10.0 | 0.00 | 0.00 | 0.00 | 59 | 1010.0 |
| 20260503215709 | 52 | 245 | 5.0 | 10.0 | 0.00 | 0.00 | 0.00 | 59 | 1010.0 |
| 20260503215210 | 52 | 245 | 6.0 | 6.0 | 0.00 | 0.00 | 0.00 | 59 | 1010.0 |
| 20260503214709 | 52 | 245 | 6.0 | 6.0 | 0.00 | 0.00 | 0.00 | 59 | 1010.0 |
| 20260503214210 | 52 | 245 | 7.0 | 8.0 | 0.00 | 0.00 | 0.00 | 59 | 1010.0 |
| 20260503213709 | 53 | 245 | 6.0 | 8.0 | 0.00 | 0.00 | 0.00 | 58 | 1010.0 |
| 20260503213209 | 53 | 245 | 9.0 | 9.0 | 0.00 | 0.00 | 0.00 | 58 | 1010.0 |
| 20260503212709 | 53 | 245 | 5.0 | 8.0 | 0.00 | 0.00 | 0.00 | 58 | 1010.0 |
| 20260503212210 | 53 | 245 | 5.0 | 10.0 | 0.00 | 0.00 | 0.00 | 58 | 1010.0 |
| 20260503211711 | 53 | 245 | 7.0 | 8.0 | 0.00 | 0.00 | 0.00 | 57 | 1010.0 |
| 20260503211212 | 53 | 245 | 5.0 | 9.0 | 0.00 | 0.00 | 0.00 | 57 | 1010.0 |
| 20260503210709 | 53 | 245 | 2.0 | 10.0 | 0.00 | 0.00 | 0.00 | 57 | 1010.0 |
| 20260503210209 | 53 | 245 | 5.0 | 9.0 | 0.00 | 0.00 | 0.00 | 58 | 1010.0 |
| 20260503205709 | 52 | 245 | 9.0 | 12.0 | 0.00 | 0.00 | 0.00 | 58 | 1010.0 |
| 20260503205209 | 52 | 245 | 7.0 | 11.0 | 0.00 | 0.00 | 0.00 | 58 | 1010.0 |
| 20260503204709 | 52 | 245 | 4.0 | 12.0 | 0.00 | 0.00 | 0.00 | 58 | 1010.0 |
| 20260503204209 | 52 | 245 | 4.0 | 8.0 | 0.00 | 0.00 | 0.00 | 58 | 1010.0 |
| 20260503203710 | 52 | 245 | 4.0 | 13.0 | 0.00 | 0.00 | 0.00 | 58 | 1010.0 |
| 20260503203209 | 52 | 245 | 5.0 | 9.0 | 0.00 | 0.00 | 0.00 | 57 | 1010.0 |
| 20260503202709 | 53 | 245 | 6.0 | 7.0 | 0.00 | 0.00 | 0.00 | 58 | 1010.0 |
| 20260503202209 | 52 | 245 | 9.0 | 9.0 | 0.00 | 0.00 | 0.00 | 57 | 1011.0 |
| 20260503201709 | 53 | 245 | 11.0 | 11.0 | 0.00 | 0.00 | 0.00 | 56 | 1010.0 |